Location: Unspecified
(0.0000°N, 0.0000°E)
Time: 16:46:35
(UTC+00:00)

JUGNU - Visible Passes

Search period start: 31 May 2023 00:00
Search period end: 10 June 2023 00:00
Orbit: 835 x 863 km, 20.0° (Epoch: 31 May)

Date Brightness Start Highest point End Pass type
(mag) Time Alt. Az. Time Alt. Az. Time Alt. Az.
31 May ? 18:44:50 10° SSW 18:48:35 17° SSE 18:51:06 13° SE visible
31 May ? 20:32:33 10° SW 20:32:58 12° SW 20:32:58 12° SW visible
01 Jun ? 18:29:10 10° SSW 18:33:11 18° SSE 18:37:04 10° ESE visible
01 Jun ? 20:16:58 10° SW 20:18:56 20° SW 20:18:56 20° SW visible
02 Jun ? 05:27:43 10° NNW 05:30:30 13° N 05:33:18 10° NE visible
02 Jun ? 18:13:30 10° SSW 18:17:47 20° SSE 18:22:02 10° ESE visible
02 Jun ? 20:01:23 10° SW 20:04:59 34° SSW 20:04:59 34° SSW visible
03 Jun ? 05:12:03 10° NNW 05:15:07 14° NNE 05:18:14 10° NE visible
03 Jun ? 19:45:51 10° SW 19:51:06 52° S 19:51:06 52° S visible
04 Jun ? 04:56:22 10° NNW 04:59:45 15° NNE 05:03:07 10° NE visible
04 Jun ? 19:30:18 10° WSW 19:36:10 61° SSE 19:37:18 51° ESE visible
05 Jun ? 04:40:43 10° NNW 04:44:21 17° NNE 04:48:00 10° NE visible
05 Jun ? 19:14:46 10° WSW 19:20:41 68° SSE 19:23:34 31° E visible
05 Jun ? 21:04:08 10° W 21:05:27 17° W 21:05:27 17° W visible
06 Jun ? 04:25:04 10° NNW 04:28:57 18° NNE 04:32:52 10° ENE visible
06 Jun ? 18:59:15 10° WSW 19:05:13 76° SSE 19:09:53 17° ENE visible
06 Jun ? 20:48:46 10° W 20:51:45 27° WNW 20:51:45 27° WNW visible
07 Jun ? 04:09:25 10° NNW 04:13:33 20° NNE 04:17:42 10° ENE visible
07 Jun ? 18:43:44 10° WSW 18:49:45 85° SSE 18:55:41 10° ENE visible
07 Jun ? 20:33:26 10° W 20:38:05 34° NW 20:38:05 34° NW visible
08 Jun ? 03:54:15 12° NNW 03:58:09 21° NNE 04:02:30 10° ENE visible
08 Jun ? 18:28:15 10° WSW 18:34:16 86° NNW 18:40:13 10° ENE visible
08 Jun ? 20:18:07 10° W 20:23:21 32° NNW 20:24:23 30° N visible
09 Jun ? 03:40:20 18° NNW 03:42:44 23° NNE 03:47:18 10° ENE visible
09 Jun ? 05:26:08 10° WNW 05:31:54 60° NNE 05:37:41 10° E visible
09 Jun ? 20:02:49 10° WNW 20:07:54 29° NNW 20:10:38 20° NNE visible
